[[{"header":{"parameterUnit":"m.s-1","parameterCategory":1,"la1":30.2991,"la2":30.254,"lo1":-89.0895,"lo2":-89.0444,"dy":0.0017,"dx":0.0017,"nx":28,"ny":28,"refTime":"2025-06-01T03:00:00:Z","depth":0,"parameterNumber":2,"parameterNumberName":"U-component_of_WINDS"},"data":[0,0,0,0,0,0,0,0,0,0,0,0,0,0,0,0,0,0,0,0,0,0,0,0,0,0,0,0,0,0,0,0,0,0,0,0,0,0,0,0,0,0,0,0,0,0,0,0,0,0,0,0,0,0,0,0,0,0,0.8299,0.8299,0,0.8267,0.8267,0.8267,0.8246,0.8246,0.8246,0.8246,0.8212,0.8211,0.821,0,0,0,0,0,0,0,0,0,0,0,0,0,0.834,0.8339,0.8299,0.8299,0.8299,0.8267,0.8267,0.8267,0.8246,0.8246,0.8246,0.8246,0.8212,0.8211,0.821,0,0,0,0,0,0,0,0,0,0,0,0,0,0.8317,0.8339,0.83,0.8285,0.8283,0.8268,0.8267,0.8266,0.8246,0.8246,0.8246,0.8246,0.8212,0.8211,0.821,0.8206,0,0,0.8206,0.8206,0,0,0,0,0,0,0,0,0.8318,0.8315,0.8287,0.8286,0.8284,0.8261,0.8269,0.8246,0.8246,0.826,0.8246,0.8245,0.8228,0.8226,0.822,0.8205,0.8203,0.8206,0.8206,0.8205,0.8205,0,0,0,0,0,0,0,0.832,0.8316,0.8287,0.8287,0.8285,0.8279,0.8275,0.8264,0.8245,0.8259,0.8257,0.8254,0.8227,0.8221,0.8219,0.8203,0.8206,0.8205,0.8205,0.8204,0.818,0.818,0,0,0,0,0,0,0.8324,0.8318,0.8288,0.8286,0.8301,0.8278,0.8274,0.8268,0.8246,0.8242,0.8254,0.8253,0.8223,0.822,0.8218,0.821,0.8205,0.8204,0.8203,0.818,0.818,0.818,0,0,0,0,0,0,0.8325,0.8321,0.8289,0.8301,0.8297,0.8278,0.8271,0.8268,0.8262,0.8242,0.8238,0.8252,0.8223,0.8219,0.8209,0.8209,0.8203,0.8202,0.818,0.818,0.818,0.8196,0,0,0,0,0,0,0.8326,0.8322,0.8321,0.8302,0.8296,0.8282,0.8271,0.8267,0.826,0.8258,0.8239,0.8235,0.8223,0.8211,0.8208,0.8207,0.8201,0.818,0.818,0.818,0.8195,0.8196,0.8197,0,0,0,0,0,0.8328,0.8327,0.8321,0.8318,0.8295,0.8282,0.8279,0.8264,0.826,0.8258,0.8245,0.8236,0.8209,0.821,0.8206,0.8205,0.8179,0.818,0.818,0.8195,0.8196,0.8197,0,0,0,0,0,0,0.8348,0.8325,0.8318,0.8311,0.8298,0.8278,0.8276,0.8267,0.8255,0.8254,0.8236,0.8232,0.8222,0.8213,0.8214,0.8199,0.8193,0.8192,0.8206,0.8207,0.8208,0.821,0.82,0,0,0,0,0,0.8351,0.8343,0.8323,0.8319,0.8313,0.8296,0.8289,0.8279,0.8265,0.826,0.8246,0.8232,0.822,0.8213,0.8201,0.8193,0.8188,0.8191,0.8192,0.8193,0.8192,0.8185,0.8185,0.818,0.818,0.818,0,0,0.8359,0.8345,0.8341,0.8323,0.8312,0.8302,0.8291,0.8283,0.8275,0.8258,0.8247,0.8236,0.8219,0.8209,0.8204,0.8201,0.8192,0.8193,0.8194,0.8193,0.8185,0.8186,0.8186,0.818,0.818,0.818,0,0,0.8367,0.8357,0.8352,0.834,0.8324,0.8312,0.831,0.8291,0.8283,0.8271,0.8258,0.8248,0.8229,0.8217,0.8208,0.8209,0.8199,0.8206,0.8212,0.8205,0.8205,0.8205,0.8204,0.8204,0.8206,0.8206,0.8206,0,0.8379,0.8365,0.835,0.8341,0.8332,0.8317,0.831,0.83,0.828,0.8274,0.827,0.8244,0.8232,0.8217,0.8217,0.8212,0.8208,0.8208,0.8206,0.8206,0.8206,0.8205,0.8205,0.8206,0.8206,0.8206,0.8206,0,0.8379,0.8369,0.8366,0.8347,0.8338,0.8331,0.8313,0.8306,0.8296,0.8284,0.827,0.8255,0.8239,0.8235,0.8225,0.8218,0.8216,0.821,0.8204,0.8208,0.8206,0.8206,0.8208,0.8207,0.8207,0.8207,0,0,0.84,0.8371,0.837,0.836,0.834,0.8331,0.8322,0.8306,0.8299,0.8285,0.8276,0.8259,0.8252,0.8242,0.8231,0.8225,0.8224,0.8218,0.8218,0.8219,0.8213,0.8217,0.8217,0.8217,0.8217,0.8217,0.8214,0,0.8404,0.8388,0.8372,0.8361,0.835,0.8334,0.8325,0.8311,0.8299,0.8287,0.8273,0.8261,0.8254,0.8247,0.8241,0.8226,0.8222,0.8226,0.8207,0.8206,0.8211,0.8216,0.8221,0.8219,0.8213,0.8213,0.8213,0,0.8408,0.8394,0.8381,0.8359,0.8354,0.8347,0.833,0.832,0.8302,0.8293,0.8281,0.8269,0.8257,0.8252,0.8233,0.8236,0.8227,0.8218,0.8217,0.8215,0.821,0.8212,0.8218,0.8218,0.8212,0.8212,0.8212,0,0.8422,0.8401,0.839,0.8382,0.8357,0.8352,0.8341,0.8323,0.8314,0.8298,0.8291,0.8275,0.8266,0.8252,0.8235,0.8233,0.8217,0.8212,0.8209,0.8209,0.8206,0.8206,0.8209,0.8202,0.8202,0.8202,0.8202,0,0.8428,0.8421,0.8396,0.8389,0.8379,0.8361,0.8351,0.8339,0.8323,0.8312,0.8297,0.8287,0.8265,0.8252,0.8238,0.8224,0.822,0.8211,0.8208,0.8212,0.8213,0.8206,0.8205,0.8202,0.8202,0.8202,0.8202,0,0.8443,0.8427,0.8413,0.839,0.8384,0.8377,0.8357,0.8348,0.8335,0.8321,0.8317,0.8295,0.8278,0.826,0.8237,0.8228,0.8214,0.8209,0.822,0.8218,0.8215,0.8215,0.8213,0.8211,0.8206,0.8206,0.8206,0,0.8448,0.8441,0.8417,0.8409,0.8398,0.8386,0.8375,0.8357,0.8347,0.8325,0.8319,0.8301,0.8286,0.826,0.8241,0.8223,0.8217,0.8217,0.8214,0.8218,0.8215,0.8216,0.8214,0.8218,0.8219,0.8219,0.8219,0,0.8457,0.8449,0.8435,0.8418,0.8406,0.8392,0.8377,0.8371,0.8349,0.8338,0.8321,0.8309,0.8285,0.8267,0.8246,0.8233,0.8222,0.822,0.8218,0.8222,0.8228,0.8223,0.8221,0.822,0.822,0.822,0.822,0.822,0.8466,0.8458,0.844,0.8425,0.8411,0.8397,0.8387,0.8372,0.8358,0.8337,0.8327,0.8309,0.8289,0.826,0.8247,0.8232,0.8229,0.8226,0.8226,0.8225,0.8226,0.8231,0.8229,0.8229,0.8228,0.8228,0.8228,0,0.8473,0.846,0.8446,0.8425,0.8412,0.8403,0.8385,0.8375,0.836,0.8343,0.8328,0.8307,0.8288,0.8268,0.8248,0.8239,0.8233,0.8235,0.8235,0.8231,0.8231,0.8234,0.824,0.824,0.824,0.824,0.824,0.824,0.8475,0.8462,0.8451,0.8429,0.8416,0.8399,0.8389,0.8375,0.8361,0.8339,0.8324,0.831,0.8291,0.8269,0.8251,0.8245,0.8238,0.8241,0.8233,0.8233,0.8232,0.8231,0.8234,0.824,0.824,0.8235,0.8235,0.8235]},{"header":{"parameterUnit":"m.s-1","parameterCategory":1,"la1":30.2991,"la2":30.254,"lo1":-89.0895,"lo2":-89.0444,"dy":0.0017,"dx":0.0017,"nx":28,"ny":28,"refTime":"2025-06-01T03:00:00:Z","depth":0,"parameterNumber":3,"parameterNumberName":"V-component_of_WINDS"},"data":[0,0,0,0,0,0,0,0,0,0,0,0,0,0,0,0,0,0,0,0,0,0,0,0,0,0,0,0,0,0,0,0,0,0,0,0,0,0,0,0,0,0,0,0,0,0,0,0,0,0,0,0,0,0,0,0,0,0,2.3541,2.3541,0,2.3598,2.3599,2.3599,2.3562,2.356,2.3558,2.3557,2.3612,2.3615,2.3618,0,0,0,0,0,0,0,0,0,0,0,0,0,2.3394,2.3397,2.3541,2.3541,2.3542,2.3598,2.3599,2.3599,2.3562,2.356,2.3558,2.3556,2.3611,2.3615,2.3619,0,0,0,0,0,0,0,0,0,0,0,0,0,2.3455,2.3398,2.3541,2.353,2.353,2.3598,2.3599,2.36,2.3562,2.356,2.3557,2.3555,2.361,2.3615,2.3619,2.3699,0,0,2.3633,2.3635,0,0,0,0,0,0,0,0,2.3452,2.346,2.3531,2.3531,2.3531,2.357,2.3567,2.3633,2.3563,2.355,2.3557,2.3554,2.36,2.3605,2.3622,2.3702,2.3704,2.3634,2.3637,2.3639,2.364,0,0,0,0,0,0,0,2.3447,2.3458,2.3563,2.3532,2.3532,2.3521,2.3527,2.3579,2.3589,2.3551,2.3548,2.3556,2.36,2.3617,2.3623,2.3705,2.3634,2.3638,2.3641,2.3642,2.385,2.3852,0,0,0,0,0,0,2.3445,2.3454,2.3561,2.3565,2.3484,2.3526,2.3532,2.356,2.3588,2.359,2.3558,2.3554,2.3611,2.3617,2.3625,2.3718,2.3639,2.3643,2.3646,2.3847,2.385,2.3853,0,0,0,0,0,0,2.3442,2.3455,2.3559,2.3509,2.3522,2.3531,2.3563,2.3563,2.358,2.3593,2.3594,2.3575,2.3609,2.3618,2.368,2.3719,2.3645,2.3649,2.3844,2.3848,2.3852,2.3906,0,0,0,0,0,0,2.3438,2.3454,2.3486,2.351,2.3524,2.3616,2.3565,2.3566,2.3589,2.3584,2.361,2.3611,2.3608,2.3674,2.3685,2.3724,2.3653,2.384,2.3846,2.385,2.3901,2.3911,2.392,0,0,0,0,0,2.3432,2.3499,2.3488,2.3501,2.3565,2.3618,2.3626,2.3621,2.3592,2.3623,2.3631,2.361,2.3713,2.368,2.3693,2.3734,2.3838,2.3844,2.385,2.3896,2.3909,2.392,0,0,0,0,0,0,2.3479,2.3502,2.349,2.3567,2.3591,2.3612,2.3651,2.3636,2.3668,2.3662,2.3654,2.366,2.3725,2.3736,2.3699,2.3811,2.3771,2.3779,2.3801,2.3814,2.3824,2.3819,2.3657,0,0,0,0,0,2.3499,2.3541,2.3558,2.3624,2.3637,2.3642,2.3665,2.3659,2.3683,2.3693,2.3706,2.3729,2.3766,2.3791,2.3826,2.3902,2.3905,2.3936,2.3946,2.3954,2.3961,2.3999,2.4012,2.3873,2.3873,2.3873,0,0,2.3539,2.3557,2.3584,2.3634,2.3652,2.3694,2.3651,2.3698,2.3729,2.37,2.3759,2.3769,2.3794,2.3863,2.3893,2.3874,2.4,2.3962,2.3968,2.3971,2.4006,2.402,2.4031,2.3878,2.3877,2.3876,0,0,2.3633,2.3652,2.3708,2.3726,2.3753,2.3756,2.3769,2.3792,2.3797,2.3856,2.3834,2.387,2.3935,2.3952,2.397,2.4067,2.4048,2.4079,2.413,2.4167,2.4178,2.4187,2.4219,2.4231,2.4086,2.4087,2.4087,0,2.368,2.3744,2.3738,2.3786,2.3807,2.3783,2.3837,2.3855,2.3892,2.3906,2.3884,2.3962,2.3978,2.4049,2.4072,2.4088,2.4101,2.4076,2.4177,2.4186,2.4195,2.4225,2.4238,2.409,2.4089,2.4089,2.4089,0,2.3797,2.3842,2.3883,2.3919,2.3945,2.3996,2.3995,2.4022,2.4013,2.4017,2.4075,2.4093,2.4129,2.4146,2.4138,2.4214,2.4201,2.4178,2.4137,2.4212,2.424,2.4252,2.4095,2.4093,2.4092,2.4092,0,0,2.3925,2.3954,2.3969,2.3984,2.4011,2.4044,2.4092,2.4128,2.4149,2.4175,2.4214,2.4268,2.4246,2.4265,2.4259,2.4292,2.4363,2.4264,2.4264,2.428,2.4445,2.4461,2.4475,2.4351,2.4354,2.4355,2.4442,0,2.4019,2.4104,2.4098,2.4177,2.4216,2.4192,2.4233,2.4253,2.4257,2.4289,2.4294,2.4331,2.4301,2.4312,2.4343,2.4348,2.4396,2.4342,2.4385,2.4386,2.4378,2.449,2.4508,2.4589,2.4453,2.4455,2.4457,0,2.414,2.4169,2.4252,2.4269,2.4285,2.4323,2.4353,2.4385,2.4406,2.4406,2.4427,2.4414,2.446,2.4419,2.4481,2.4444,2.4461,2.4466,2.4469,2.4471,2.4425,2.4493,2.4615,2.4626,2.4474,2.4473,2.4472,0,2.4221,2.4281,2.4337,2.435,2.4373,2.4399,2.441,2.4428,2.4449,2.4475,2.4487,2.4519,2.4536,2.4559,2.4554,2.4525,2.4616,2.4575,2.4616,2.4616,2.4635,2.4634,2.4759,2.4649,2.4649,2.4649,2.4649,0,2.4325,2.4377,2.4373,2.4408,2.4463,2.4455,2.4509,2.4516,2.4532,2.4566,2.4547,2.4579,2.4571,2.4602,2.4598,2.4648,2.4657,2.4656,2.4655,2.4657,2.4657,2.4667,2.4661,2.4652,2.4652,2.4651,2.465,0,2.4425,2.4425,2.4485,2.45,2.4505,2.4545,2.4557,2.4589,2.459,2.4633,2.4643,2.4645,2.468,2.4678,2.4718,2.4715,2.4776,2.4768,2.4769,2.4766,2.4806,2.4802,2.4941,2.4957,2.4839,2.484,2.4841,0,2.4491,2.453,2.4549,2.457,2.4582,2.4617,2.4637,2.4629,2.4651,2.4675,2.4703,2.4736,2.4762,2.4819,2.4824,2.4853,2.4845,2.4892,2.4849,2.485,2.4843,2.484,2.4842,2.49,2.4901,2.4902,2.4903,0,2.4607,2.4604,2.4635,2.4665,2.4689,2.4712,2.4733,2.4751,2.4745,2.477,2.4806,2.4826,2.4866,2.4898,2.4925,2.4934,2.4917,2.4916,2.4927,2.4929,2.4927,2.4926,2.4789,2.4913,2.4912,2.4911,2.4911,2.491,2.4691,2.4722,2.4739,2.4773,2.4787,2.4806,2.4835,2.484,2.487,2.4901,2.4894,2.4933,2.495,2.4985,2.4996,2.5025,2.5008,2.5024,2.5028,2.5031,2.5035,2.4923,2.503,2.503,2.503,2.503,2.5029,0,2.4803,2.4812,2.4843,2.4872,2.4898,2.4879,2.49,2.4923,2.4957,2.4974,2.4999,2.5038,2.5069,2.5075,2.5103,2.5125,2.5118,2.5133,2.513,2.5132,2.505,2.5037,2.5138,2.5138,2.5138,2.5138,2.5138,2.5138,2.4865,2.4916,2.4915,2.4972,2.498,2.5018,2.5031,2.5048,2.5061,2.5105,2.513,2.5134,2.5145,2.5174,2.52,2.5201,2.5211,2.5229,2.5226,2.5149,2.5138,2.5128,2.5115,2.5232,2.5232,2.5306,2.5307,2.5307]}]]